LiveATC.Net - Listen to live air traffic control over the Internet!

Find LiveATC Audio Streams


Airport/ARTCC Code

Frequency
(e.g., 124.400, 128.75)
Site-wide search

Browse LiveATC Feeds
LiveATC Coverage Map
Top 50 LiveATC Feeds
Bad Weather Areas

LiveATC FAQ
Offer a LiveATC Feed
Contact LiveATC.net
Press Inquiries

LiveATC on iPhone
LiveATC on Android

Windows Phone
Windows 8/10

LiveATC Mobile
(Mobile browser)

ATC Audio Archives
Interesting Recordings

LiveATC Forums

Home Page
About LiveATC.net
Make a Donation
LiveATC Store

Terms of Use
Privacy Policy

Canadian Air Freqs

AIRMETs/SIGMETs

FAA Airport Status
Nat'l Airspace Status
Arrival Demand Charts


Server Software By:
Icecast.org
Liquidsoap

Select an area of interest:
U.S. Feeds: Class B Airports | Class C Airports | Class D/Other Airports | ARTCC (Centers)
International Feeds: Canada | Europe | Oceania | Asia | South America | North/Central America | Africa
Misc Feeds: HF Feeds
Search by ICAO/IATA airport code:   (e.g., kbos, kjfk, lax, eham, etc.)


Currently Available Live Feeds: 1483
Status Updated: Wed Aug 24 2016 21:27:01 UTC


NOTICE

Unauthorized use prohibited. See LiveATC.net Terms of Service

Asia Airport Feeds

 

LCPH Gnd/Twr/App/Radar
Paphos, Cyprus

Feed Status: DOWN
Offline since: 2016-08-14 17:14:03 UTC
LCPH 242100Z 34005KT 9999 FEW012 25/22 Q1007

Nicosia Radar: 124.200
Nicosia West Radar: 125.500
Pafos Tower: 119.900
Paphos Gnd/Twr/App: 119.900

LTAF Tower/Approach
Adana, Turkey

Feed Status: DOWN
Offline since: 2016-08-22 15:31:04 UTC
LTAF 242050Z 10004KT 060V130 9999 FEW040 27/25 Q1006 NOSIG RMK RWY23 15004KT 110V190

Adana Approach: 118.300
Adana Tower: 131.100
Adana Tower: 121.100

HF CWP 8903 (Archives)
Manila, Philippines

Feed Status: UP

Click on your favorite media player to listen:
Listen with WinAmp to HF CWP 8903  Listen with iTunes to HF CWP 8903  Click here to listen if using Real Player  Click here to listen if using Windows Media Player

Or simply listen in your browser:

Listen right in your browser(in browser, requires Flash)


Listeners: 0 out of 869 total

HF CWP: 8.903

HF SEA-2 8942 (Archives)
Manila, Philippines

Feed Status: UP

Click on your favorite media player to listen:
Listen with WinAmp to HF SEA-2 8942  Listen with iTunes to HF SEA-2 8942  Click here to listen if using Real Player  Click here to listen if using Windows Media Player

Or simply listen in your browser:

Listen right in your browser(in browser, requires Flash)


Listeners: 0 out of 869 total

HF SEA-2: 8.942

OKBK Gnd/Twr/App/Radar (Archives)
Kuwait City, Kuwait

Feed Status: UP

Click on your favorite media player to listen:
Listen with WinAmp to OKBK Gnd/Twr/App/Radar  Listen with iTunes to OKBK Gnd/Twr/App/Radar  Click here to listen if using Real Player  Click here to listen if using Windows Media Player

Or simply listen in your browser:

Listen right in your browser(in browser, requires Flash)

OKBK 242100Z 19005KT CAVOK 31/20 Q1001 NOSIG


Listeners: 2 out of 869 total

Kuwait Approach: 121.300
Kuwait Approach: 124.800
Kuwait Ground: 121.700
Kuwait Radar (Center): 125.300
Kuwait Tower: 118.300

OMDB Arrival (Archives)
Dubai, United Arab Emirates

Feed Status: UP

Click on your favorite media player to listen:
Listen with WinAmp to OMDB Arrival  Listen with iTunes to OMDB Arrival  Click here to listen if using Real Player  Click here to listen if using Windows Media Player

Or simply listen in your browser:

Listen right in your browser(in browser, requires Flash)

OMDB 242100Z 31005KT 270V010 CAVOK 34/24 Q1001 NOSIG


Listeners: 0 out of 869 total

Dubai Arrival: 124.900

OMDB Clearance Delivery (Archives)
Dubai, United Arab Emirates

Feed Status: UP

Click on your favorite media player to listen:
Listen with WinAmp to OMDB Clearance Delivery  Listen with iTunes to OMDB Clearance Delivery  Click here to listen if using Real Player  Click here to listen if using Windows Media Player

Or simply listen in your browser:

Listen right in your browser(in browser, requires Flash)

OMDB 242100Z 31005KT 270V010 CAVOK 34/24 Q1001 NOSIG


Listeners: 0 out of 869 total

Dubai Clearance Delivery: 120.350

OMDB Ground (Primary) (Archives)
Dubai, United Arab Emirates

Feed Status: UP

Click on your favorite media player to listen:
Listen with WinAmp to OMDB Ground (Primary)  Listen with iTunes to OMDB Ground (Primary)  Click here to listen if using Real Player  Click here to listen if using Windows Media Player

Or simply listen in your browser:

Listen right in your browser(in browser, requires Flash)

OMDB 242100Z 31005KT 270V010 CAVOK 34/24 Q1001 NOSIG


Listeners: 0 out of 869 total

Dubai Ground (Primary): 118.850

OMDB Ground (Secondary) (Archives)
Dubai, United Arab Emirates

Feed Status: UP

Click on your favorite media player to listen:
Listen with WinAmp to OMDB Ground (Secondary)  Listen with iTunes to OMDB Ground (Secondary)  Click here to listen if using Real Player  Click here to listen if using Windows Media Player

Or simply listen in your browser:

Listen right in your browser(in browser, requires Flash)

OMDB 242100Z 31005KT 270V010 CAVOK 34/24 Q1001 NOSIG


Listeners: 0 out of 869 total

Dubai Ground (Secondary): 118.350

OMDB North Dep (Archives)
Dubai, United Arab Emirates

Feed Status: UP

Click on your favorite media player to listen:
Listen with WinAmp to OMDB North Dep  Listen with iTunes to OMDB North Dep  Click here to listen if using Real Player  Click here to listen if using Windows Media Player

Or simply listen in your browser:

Listen right in your browser(in browser, requires Flash)

OMDB 242100Z 31005KT 270V010 CAVOK 34/24 Q1001 NOSIG


Listeners: 0 out of 869 total

Dubai Departure (North): 124.450

OMDB Tower #1 (Archives)
Dubai, United Arab Emirates

Feed Status: UP

Click on your favorite media player to listen:
Listen with WinAmp to OMDB Tower #1  Listen with iTunes to OMDB Tower #1  Click here to listen if using Real Player  Click here to listen if using Windows Media Player

Or simply listen in your browser:

Listen right in your browser(in browser, requires Flash)

OMDB 242100Z 31005KT 270V010 CAVOK 34/24 Q1001 NOSIG


Listeners: 1 out of 869 total

Dubai Tower: 119.550

OMDB Tower #2 (Archives)
Dubai, United Arab Emirates

Feed Status: UP

Click on your favorite media player to listen:
Listen with WinAmp to OMDB Tower #2  Listen with iTunes to OMDB Tower #2  Click here to listen if using Real Player  Click here to listen if using Windows Media Player

Or simply listen in your browser:

Listen right in your browser(in browser, requires Flash)

OMDB 242100Z 31005KT 270V010 CAVOK 34/24 Q1001 NOSIG


Listeners: 0 out of 869 total

Dubai Tower: 118.750

OMDB Tower (both) (Archives)
Dubai, United Arab Emirates

Feed Status: UP

Click on your favorite media player to listen:
Listen with WinAmp to OMDB Tower (both)  Listen with iTunes to OMDB Tower (both)  Click here to listen if using Real Player  Click here to listen if using Windows Media Player

Or simply listen in your browser:

Listen right in your browser(in browser, requires Flash)

OMDB 242100Z 31005KT 270V010 CAVOK 34/24 Q1001 NOSIG


Listeners: 0 out of 869 total

Dubai Tower: 118.750
Dubai Tower: 119.550

OMSJ Tower (Archives)
Dubai, United Arab Emirates

Feed Status: UP

Click on your favorite media player to listen:
Listen with WinAmp to OMSJ Tower  Listen with iTunes to OMSJ Tower  Click here to listen if using Real Player  Click here to listen if using Windows Media Player

Or simply listen in your browser:

Listen right in your browser(in browser, requires Flash)

OMSJ 242100Z VRB03KT CAVOK 30/18 Q1001


Listeners: 0 out of 869 total

Sharjah Tower: 118.600

OPKC Gnd/Twr/Radar (Archives)
Karachi, Pakistan

Feed Status: UP

Click on your favorite media player to listen:
Listen with WinAmp to OPKC Gnd/Twr/Radar  Listen with iTunes to OPKC Gnd/Twr/Radar  Click here to listen if using Real Player  Click here to listen if using Windows Media Player

Or simply listen in your browser:

Listen right in your browser(in browser, requires Flash)

OPKC 242055Z 26010KT 6000 SCT020 BKN100 28/23 Q1003 NOSIG


Listeners: 0 out of 869 total

Karachi Ground: 121.600
Karachi Radar: 125.500
Karachi Tower: 118.300

OPLA ATIS (Archives)
Lahore, Pakistan

Feed Status: UP

Click on your favorite media player to listen:
Listen with WinAmp to OPLA ATIS  Listen with iTunes to OPLA ATIS  Click here to listen if using Real Player  Click here to listen if using Windows Media Player

Or simply listen in your browser:

Listen right in your browser(in browser, requires Flash)

OPLA 242055Z 04005KT 4000 FU SCT040 SCT100 24/22 Q1006 NOSIG


Listeners: 0 out of 869 total

Lahore ATIS: 126.300

OPLA/OPLH Gnd/Twr/App (Archives)
Lahore, Pakistan

Feed Status: UP

Click on your favorite media player to listen:
Listen with WinAmp to OPLA/OPLH Gnd/Twr/App  Listen with iTunes to OPLA/OPLH Gnd/Twr/App  Click here to listen if using Real Player  Click here to listen if using Windows Media Player

Or simply listen in your browser:

Listen right in your browser(in browser, requires Flash)

OPLA 242055Z 04005KT 4000 FU SCT040 SCT100 24/22 Q1006 NOSIG


Listeners: 2 out of 869 total

Lahore Approach: 121.300
Lahore Approach: 125.300
Lahore Control: 127.500
Lahore Ground: 118.400
Lahore Tower: 118.100
Lahore Tower: 121.800
Walton (OPLH) Tower: 119.400

OPLA/OPLH Gnd/Twr/App (Archives)
Lahore, Pakistan

Feed Status: UP

Click on your favorite media player to listen:
Listen with WinAmp to OPLA/OPLH Gnd/Twr/App  Listen with iTunes to OPLA/OPLH Gnd/Twr/App  Click here to listen if using Real Player  Click here to listen if using Windows Media Player

Or simply listen in your browser:

Listen right in your browser(in browser, requires Flash)

OPLA 242055Z 04005KT 4000 FU SCT040 SCT100 24/22 Q1006 NOSIG


Listeners: 2 out of 869 total

Lahore Approach: 121.300
Lahore Approach: 125.300
Lahore Control: 127.500
Lahore Ground: 118.400
Lahore Tower: 118.100
Lahore Tower: 121.800
Walton (OPLH) Tower: 119.400

OPMT Twr/App
Multan, Pakistan

Feed Status: DOWN
Offline since: 2016-05-02 19:43:03 UTC
OPMT 242055Z 00000KTS 4000 FU SCT040 BKN100 27/23 Q1004 TEMPO TSRA FEW030CB

Multan Approach/Departure: 123.150
Multan Tower: 119.100

OPRN Approach (Archives)
Islamabad, Pakistan

Feed Status: UP

Click on your favorite media player to listen:
Listen with WinAmp to OPRN Approach  Listen with iTunes to OPRN Approach  Click here to listen if using Real Player  Click here to listen if using Windows Media Player

Or simply listen in your browser:

Listen right in your browser(in browser, requires Flash)

OPRN 242100Z 05008KT 6000 FEW040 SCT100 25/21 Q1009.4/29.81


Listeners: 0 out of 869 total

Islamabad Approach: 124.900

OPRN ATIS (Archives)
Islamabad, Pakistan

Feed Status: UP

Click on your favorite media player to listen:
Listen with WinAmp to OPRN ATIS  Listen with iTunes to OPRN ATIS  Click here to listen if using Real Player  Click here to listen if using Windows Media Player

Or simply listen in your browser:

Listen right in your browser(in browser, requires Flash)

OPRN 242100Z 05008KT 6000 FEW040 SCT100 25/21 Q1009.4/29.81


Listeners: 0 out of 869 total

Islamabad ATIS: 129.600

OPRN Tower (Archives)
Islamabad, Pakistan

Feed Status: UP

Click on your favorite media player to listen:
Listen with WinAmp to OPRN Tower  Listen with iTunes to OPRN Tower  Click here to listen if using Real Player  Click here to listen if using Windows Media Player

Or simply listen in your browser:

Listen right in your browser(in browser, requires Flash)

OPRN 242100Z 05008KT 6000 FEW040 SCT100 25/21 Q1009.4/29.81


Listeners: 0 out of 869 total

Islamabad Tower: 123.700

RCKH Ground
Kaohsiung, Taiwan

Feed Status: DOWN
Offline since: 2015-05-24 11:58:03 UTC
RCKH 242000Z 05002KT 6000 FEW014 28/26 Q1003 TEMPO 5000 BR RMK A2963

Kaohsiung Ground: 121.900

RCKH Tower
Kaohsiung, Taiwan

Feed Status: DOWN
Offline since: 2015-06-03 18:36:03 UTC
RCKH 242000Z 05002KT 6000 FEW014 28/26 Q1003 TEMPO 5000 BR RMK A2963

Kaohsiung Tower: 118.700

RCSS Approach (Archives)
Taipei, Taiwan

Feed Status: UP

Click on your favorite media player to listen:
Listen with WinAmp to RCSS Approach  Listen with iTunes to RCSS Approach  Click here to listen if using Real Player  Click here to listen if using Windows Media Player

Or simply listen in your browser:

Listen right in your browser(in browser, requires Flash)

RCSS 242000Z 27002KT 9999 FEW020 27/21 Q1003 NOSIG RMK A2964

RCSS Flight Activity (Flightaware)

Listeners: 1 out of 869 total

Taipei Approach: 119.700

RCSS Ground/Delivery (Archives)
Taipei, Taiwan

Feed Status: UP

Click on your favorite media player to listen:
Listen with WinAmp to RCSS Ground/Delivery  Listen with iTunes to RCSS Ground/Delivery  Click here to listen if using Real Player  Click here to listen if using Windows Media Player

Or simply listen in your browser:

Listen right in your browser(in browser, requires Flash)

RCSS 242000Z 27002KT 9999 FEW020 27/21 Q1003 NOSIG RMK A2964

RCSS Flight Activity (Flightaware)

Listeners: 0 out of 869 total

Songshan Clearance Delivery: 121.200
Songshan Ground: 121.900

RCSS Tower (Archives)
Taipei, Taiwan

Feed Status: UP

Click on your favorite media player to listen:
Listen with WinAmp to RCSS Tower  Listen with iTunes to RCSS Tower  Click here to listen if using Real Player  Click here to listen if using Windows Media Player

Or simply listen in your browser:

Listen right in your browser(in browser, requires Flash)

RCSS 242000Z 27002KT 9999 FEW020 27/21 Q1003 NOSIG RMK A2964

RCSS Flight Activity (Flightaware)

Listeners: 0 out of 869 total

Songshan Tower: 118.100

RCTP Tower (Archives)
Taipei, Taiwan

Feed Status: UP

Click on your favorite media player to listen:
Listen with WinAmp to RCTP Tower  Listen with iTunes to RCTP Tower  Click here to listen if using Real Player  Click here to listen if using Windows Media Player

Or simply listen in your browser:

Listen right in your browser(in browser, requires Flash)

RCTP 242030Z 08001KT 9999 FEW025 25/22 Q1003 NOSIG RMK A2963

RCTP Flight Activity (Flightaware)

Listeners: 0 out of 869 total

Taipei Tower: 118.700

RJSF RDO (Archives)
Sukagawa, Japan

Feed Status: UP

Click on your favorite media player to listen:
Listen with WinAmp to RJSF RDO  Listen with iTunes to RJSF RDO  Click here to listen if using Real Player  Click here to listen if using Windows Media Player

Or simply listen in your browser:

Listen right in your browser(in browser, requires Flash)

METAR NOT AVAILABLE

RJSF Flight Activity (Flightaware)

Listeners: 0 out of 869 total

Fukushima Radio: 118.050

RJTT App/Dep (Archives)
Tokyo, Japan

Feed Status: UP

Click on your favorite media player to listen:
Listen with WinAmp to RJTT App/Dep  Listen with iTunes to RJTT App/Dep  Click here to listen if using Real Player  Click here to listen if using Windows Media Player

Or simply listen in your browser:

Listen right in your browser(in browser, requires Flash)

RJTT 242030Z 10003KT 9999 FEW020 25/25 Q1009 NOSIG RMK 1CU020 A2980

RJTT Flight Activity (Flightaware)

Listeners: 7 out of 869 total

Tokyo Approach: 119.100
Tokyo Approach: 119.400
Tokyo Departure: 120.800
Tokyo Departure: 126.000

RJTT Tokyo Control (Archives)
Tokyo, Japan

Feed Status: UP

Click on your favorite media player to listen:
Listen with WinAmp to RJTT Tokyo Control  Listen with iTunes to RJTT Tokyo Control  Click here to listen if using Real Player  Click here to listen if using Windows Media Player

Or simply listen in your browser:

Listen right in your browser(in browser, requires Flash)

RJTT 242030Z 10003KT 9999 FEW020 25/25 Q1009 NOSIG RMK 1CU020 A2980

RJTT Flight Activity (Flightaware)

Listeners: 11 out of 869 total

Tokyo Control: 133.700
Tokyo Control: 125.900
Tokyo Control: 120.500

RJTT Twr/TCA (Archives)
Tokyo, Japan

Feed Status: UP

Click on your favorite media player to listen:
Listen with WinAmp to RJTT Twr/TCA  Listen with iTunes to RJTT Twr/TCA  Click here to listen if using Real Player  Click here to listen if using Windows Media Player

Or simply listen in your browser:

Listen right in your browser(in browser, requires Flash)

RJTT 242030Z 10003KT 9999 FEW020 25/25 Q1009 NOSIG RMK 1CU020 A2980

RJTT Flight Activity (Flightaware)

Listeners: 13 out of 869 total

Tokyo TCA: 124.750
Tokyo Tower: 124.350
Tokyo Tower: 118.725
Tokyo Tower: 118.575
Tokyo Tower: 118.100

RKSG Gnd/Twr/App (Archives)
Pyeongtaek, Korea, Republic of

Feed Status: UP

Click on your favorite media player to listen:
Listen with WinAmp to RKSG Gnd/Twr/App  Listen with iTunes to RKSG Gnd/Twr/App  Click here to listen if using Real Player  Click here to listen if using Windows Media Player

Or simply listen in your browser:

Listen right in your browser(in browser, requires Flash)

RKSG 242058Z 10003KT 4SM BR FEW200 24/21 A2971 RMK AO2A SLP063 T02350212 53001

RKSG Flight Activity (Flightaware)

Listeners: 0 out of 869 total

Desiderio Final: 255.800
Desiderio GCA: 226.800
Desiderio GCA: 127.000
Desiderio Ground (Camp Humphreys A-511 AAF): 119.500
Desiderio Ground UHF: 229.700
Desiderio Ops: 294.100
Desiderio Tower (Camp Humphreys A-511 AAF): 122.500
Desiderio Tower UHF: 257.800

RKRR Incheon Control (Archives)
Incheon, Korea, Republic of

Feed Status: UP

Click on your favorite media player to listen:
Listen with WinAmp to RKRR Incheon Control  Listen with iTunes to RKRR Incheon Control  Click here to listen if using Real Player  Click here to listen if using Windows Media Player

Or simply listen in your browser:

Listen right in your browser(in browser, requires Flash)

RKSI 242030Z 07001KT CAVOK 25/21 Q1006 NOSIG

RKSI Flight Activity (Flightaware)

Listeners: 2 out of 869 total

Incheon Control North Sector (Primary): 128.700
Incheon Control North Sector (Secondary): 132.800
Incheon Control Northwest Sector (Primary): 126.175
Incheon Control Northwest Sector (Secondary): 123.725

RKSO Gnd/Twr/App (Archives)
Pyeongtaek, Korea, Republic of

Feed Status: UP

Click on your favorite media player to listen:
Listen with WinAmp to RKSO Gnd/Twr/App  Listen with iTunes to RKSO Gnd/Twr/App  Click here to listen if using Real Player  Click here to listen if using Windows Media Player

Or simply listen in your browser:

Listen right in your browser(in browser, requires Flash)

RKSO 241958Z 00000KT 6SM HZ CLR 23/22 A2968 RMK AO2A SLP053 T02260216 $

RKSO Flight Activity (Flightaware)

Listeners: 1 out of 869 total

25 FS Ops: 229.000
36FS Ops: 371.300
Osan Air Base Approach/Departure: 127.900
Osan Air Base Approach/Departure: 133.650
Osan Air Base Ground: 132.450
Osan Air Base Tower: 122.100
Osan App/Dep UHF: 306.600
Osan App/Dep UHF: 234.300
Osan App/Dep UHF (possibly inactive): 306.300
Osan App/Dep UHF (possibly inactive): 363.100
Osan Ground UHF: 253.700
Osan SAR: 282.800
Osan SAR: 381.000
Osan SOF: 299.800
Osan Tower UHF: 308.800
Stallion Ops: 276.200

RPLL Approach/Departure (Archives)
Manila, Philippines

Feed Status: UP

Click on your favorite media player to listen:
Listen with WinAmp to RPLL Approach/Departure  Listen with iTunes to RPLL Approach/Departure  Click here to listen if using Real Player  Click here to listen if using Windows Media Player

Or simply listen in your browser:

Listen right in your browser(in browser, requires Flash)

RPLL 242000Z VRB02KT 9999 FEW023 SCT100 27/27 Q1005 NOSIG RMK A2968

RPLL Flight Activity (Flightaware)

Listeners: 3 out of 869 total

Manila Approach/Departure: 121.100
Manila Approach/Departure: 119.700
Manila Center/Control: 128.300

RPLL Tower (Archives)
Manila, Philippines

Feed Status: UP

Click on your favorite media player to listen:
Listen with WinAmp to RPLL Tower  Listen with iTunes to RPLL Tower  Click here to listen if using Real Player  Click here to listen if using Windows Media Player

Or simply listen in your browser:

Listen right in your browser(in browser, requires Flash)

RPLL 242000Z VRB02KT 9999 FEW023 SCT100 27/27 Q1005 NOSIG RMK A2968

RPLL Flight Activity (Flightaware)

Listeners: 2 out of 869 total

Manila Tower: 118.100

RPUN Tower (Archives)
Pili-Luzon Island, Philippines

Feed Status: UP

Click on your favorite media player to listen:
Listen with WinAmp to RPUN Tower  Listen with iTunes to RPUN Tower  Click here to listen if using Real Player  Click here to listen if using Windows Media Player

Or simply listen in your browser:

Listen right in your browser(in browser, requires Flash)

METAR NOT AVAILABLE

RPUN Flight Activity (Flightaware)

Listeners: 0 out of 869 total

Naga Tower: 122.100

HF CWP/SEA (Archives)
Pyeongtaek, Korea, Republic of

Feed Status: UP

Click on your favorite media player to listen:
Listen with WinAmp to HF CWP/SEA  Listen with iTunes to HF CWP/SEA  Click here to listen if using Real Player  Click here to listen if using Windows Media Player

Or simply listen in your browser:

Listen right in your browser(in browser, requires Flash)


Listeners: 0 out of 869 total

CWP 1 (Tokyo): 11.384
CWP 1/2 (Tokyo): 13.300
CWP-1/2 (San Francisco): 17.904
CWP-1/2 (Tokyo/Manila): 8.903
CWP-1/2 (Tokyo/San Francisco): 21.985
SEA-2 (Manila): 8.942

UAAA Approach (Archives)
Almaty, Kazakhstan

Feed Status: UP

Click on your favorite media player to listen:
Listen with WinAmp to UAAA Approach  Listen with iTunes to UAAA Approach  Click here to listen if using Real Player  Click here to listen if using Windows Media Player

Or simply listen in your browser:

Listen right in your browser(in browser, requires Flash)

UAAA 242030Z 16002MPS 9999 FEW200 14/09 Q1013 R88/65D NOSIG

UAAA Flight Activity (Flightaware)

Listeners: 0 out of 869 total

Almaty Approach: 124.800

UAAA Tower (Archives)
Almaty, Kazakhstan

Feed Status: UP

Click on your favorite media player to listen:
Listen with WinAmp to UAAA Tower  Listen with iTunes to UAAA Tower  Click here to listen if using Real Player  Click here to listen if using Windows Media Player

Or simply listen in your browser:

Listen right in your browser(in browser, requires Flash)

UAAA 242030Z 16002MPS 9999 FEW200 14/09 Q1013 R88/65D NOSIG

UAAA Flight Activity (Flightaware)

Listeners: 0 out of 869 total

Almaty Tower: 119.400

UAAA Tower/Approach (Archives)
Almaty, Kazakhstan

Feed Status: UP

Click on your favorite media player to listen:
Listen with WinAmp to UAAA Tower/Approach  Listen with iTunes to UAAA Tower/Approach  Click here to listen if using Real Player  Click here to listen if using Windows Media Player

Or simply listen in your browser:

Listen right in your browser(in browser, requires Flash)

UAAA 242030Z 16002MPS 9999 FEW200 14/09 Q1013 R88/65D NOSIG

UAAA Flight Activity (Flightaware)

Listeners: 0 out of 869 total

Almaty Approach: 124.800
Almaty Tower: 119.400

UIII Irkutsk Control (Archives)
Irkutsk, Russia

Feed Status: UP

Click on your favorite media player to listen:
Listen with WinAmp to UIII Irkutsk Control  Listen with iTunes to UIII Irkutsk Control  Click here to listen if using Real Player  Click here to listen if using Windows Media Player

Or simply listen in your browser:

Listen right in your browser(in browser, requires Flash)

UIII 242030Z 10002MPS CAVOK 06/05 Q1023 R12/CLRD60 NOSIG RMK QFE725/0966

UIII Flight Activity (Flightaware)

Listeners: 4 out of 869 total

Irkutsk Approach: 125.200
Irkutsk Control (Sector 1): 133.400
Irkutsk Control (Sector 2): 124.700
Irkutsk Control (Sector 3): 134.100
Irkutsk Ground: 121.700
Irkutsk Radar: 119.300
Irkutsk Tower: 118.100

Notes:
Maximum traffic from 1700-0900 UTC
Traffic from Europe to Asia (Lufthansa, Air France, KLM, AA, Air Canada, Cathay, Singapore), all Chinese, Korean routes to Europe.

UNKL Gnd/Twr/App
Krasnoyarsk, Russia

Feed Status: DOWN
Offline since: 2016-08-22 14:48:04 UTC
UNKL 242030Z 27001MPS 6000 1900E R29/P2000D BCFG SCT001 10/09 Q1023 R29/190060 TEMPO 0300 FG VV001 RMK QBB050 QFE742

Krasnoyarsk Approach: 127.700
Krasnoyarsk Ground: 121.700
Krasnoyarsk Krug: 122.000
Krasnoyarsk Tower: 118.300

UNNT Gnd/Twr/App/Radar/Misc (Archives)
Novosibirsk, Russia

Feed Status: UP

Click on your favorite media player to listen:
Listen with WinAmp to UNNT Gnd/Twr/App/Radar/Misc  Listen with iTunes to UNNT Gnd/Twr/App/Radar/Misc  Click here to listen if using Real Player  Click here to listen if using Windows Media Player

Or simply listen in your browser:

Listen right in your browser(in browser, requires Flash)

UNNT 242030Z 00000MPS 1700 0150SE FG NSC 08/07 Q1023 R07/090070 R16/090070 NOSIG RMK QFE757/1010

UNNT Flight Activity (Flightaware)

Listeners: 1 out of 869 total

ACC_Novosibirsk-Control (Military): 128.500
ACC_Novosibirsk-Control (Southeast): 126.100
ACC_Novosibirsk-Control (West): 127.000
GPA_Kristallik (airfield Severniy): 123.425
GPA_Palma (airfield Mochische): 118.000
GPA_Sernisiy (airfield Chkalovskiy): 124.750
GPA_Tomsk Information 1: 134.500
GPA_Vihrevoy (airfield Evsino): 126.000
MIL_Larek: 123.750
MIL_Maneken (airfield Chkalovskiy): 123.550
MIL_Novosibirsk-1 (airbase Tolmachevo: 124.000
MIL_Noyabr 31: 124.900
MIL_Polyana: 129.800
MIL_Stvorka: 130.750
MIL_Trimaran: 124.500
OVB_Apron: 118.800
OVB_Backup frequency: 127.100
OVB_Novosibirsk-Approach: 127.500
OVB_Novosibirsk-Ground: 121.700
OVB_Novosibirsk-Radar: 122.000
OVB_Novosibirsk-Tower: 118.500
OVB_Novosibirsk-Transit: 131.600
OVB_S7 Service: 131.925
OVB_Tech. room: 118.900
SP_Air-to-Air: 123.450
SP_Air-to-Air 2: 123.400
SP_China chat: 136.975
SP_Common backup frequency: 129.000
SP_Emergency: 121.500
SP_Emergency 2: 123.100
SP_Flyoff: 124.375
SURF_Boarding: 163.425
SURF_Cargo operating: 163.300
SURF_Ground surf: 163.375
SURF_O&D Service: 163.325
SURF_Registration: 163.625
SURF_Security: 163.750
SURF_Supplies: 163.450
SURF_Tower surf: 163.650
SURF_Vehicles: 163.200

UNOO Gnd/Tower/App (Archives)
Omsk, Russia

Feed Status: UP

Click on your favorite media player to listen:
Listen with WinAmp to UNOO Gnd/Tower/App  Listen with iTunes to UNOO Gnd/Tower/App  Click here to listen if using Real Player  Click here to listen if using Windows Media Player

Or simply listen in your browser:

Listen right in your browser(in browser, requires Flash)

UNOO 242030Z 00000MPS 2400 R07/2000D BR NSC 16/16 Q1020 R07/CLRD60 TEMPO 0200 FG RMK QFE756

UNOO Flight Activity (Flightaware)

Listeners: 2 out of 869 total

Aerodrom Kalachevo: 123.300
Aerodrom Marianovka: 123.000
Emergency/Guard: 121.500
Novosibirsk Control (Sector 7): 132.500
Novosibirsk Control (Sector 8): 132.900
Omsk Approach (FL060-FL265): 131.200
Omsk Apron: 118.800
Omsk Start/Radar: 119.000
Omsk Taxiing: 121.700
Omsk Transit: 131.700
UNOS/OMSK-Severny: 124.000

UNTT Gnd/Info/Radar/Control (Archives)
Tomsk, Russia

Feed Status: UP

Click on your favorite media player to listen:
Listen with WinAmp to UNTT Gnd/Info/Radar/Control  Listen with iTunes to UNTT Gnd/Info/Radar/Control  Click here to listen if using Real Player  Click here to listen if using Windows Media Player

Or simply listen in your browser:

Listen right in your browser(in browser, requires Flash)

UNTT Flight Activity (Flightaware)

Listeners: 0 out of 869 total

Krasnoyarsk Control (Sector 2): 133.300
Novosibirsk Control (Sector 2): 126.100
Novosibirsk Control (Sector 3): 129.300
Novosibirsk Control (Sector 5): 132.300
Tomsk Ground: 118.800
Tomsk Informaciya: 126.000
Tomsk Krug (Radar): 127.300
Troynik (Golovino): 122.400

USCC Gnd/Twr/App/Control (Archives)
Chelyabinsk, Russia

Feed Status: UP

Click on your favorite media player to listen:
Listen with WinAmp to USCC Gnd/Twr/App/Control  Listen with iTunes to USCC Gnd/Twr/App/Control  Click here to listen if using Real Player  Click here to listen if using Windows Media Player

Or simply listen in your browser:

Listen right in your browser(in browser, requires Flash)

USCC 242030Z 25003MPS CAVOK 20/12 Q1020 R27/000060 NOSIG RMK QFE745

USCC Flight Activity (Flightaware)

Listeners: 0 out of 869 total

Chelyabinsk Approach: 124.700
Chelyabinsk Control (North): 125.400
Chelyabinsk Control (South): 125.500
Chelyabinsk Tower: 125.200
Chelyabinsk Transit: 131.600
Emergency/Guard: 121.500
Hvoyniy: 121.925
Military Flight Control: 128.500
Objektivniy (engineering service): 125.700
Peklo Tower: 131.350
Pilot-to-Pilot (Air to Air): 123.450
Plavnik - Dostupniy - Gavan Tower: 124.000
Plavnik-Peleng: 130.000
Pribautka: 122.250
Stolitsa: 120.250

USTR Gnd/Twr/App (Archives)
Tyumen, Russia

Feed Status: UP

Click on your favorite media player to listen:
Listen with WinAmp to USTR Gnd/Twr/App  Listen with iTunes to USTR Gnd/Twr/App  Click here to listen if using Real Player  Click here to listen if using Windows Media Player

Or simply listen in your browser:

Listen right in your browser(in browser, requires Flash)

USTR 242030Z 23004MPS CAVOK 21/17 Q1017 R21/CLRD65 NOSIG RMK QFE753/1005

USTR Flight Activity (Flightaware)

Listeners: 0 out of 869 total

Tyumen Approach: 126.100
Tyumen Control: 132.600
Tyumen Control: 133.600
Tyumen Info (Regional): 133.400
Tyumen Start: 118.200
Tyumen Transit: 131.800

VCBI Radar
Colombo, Sri Lanka

Feed Status: DOWN
Offline since: 2016-08-24 10:21:04 UTC
VCBI 242010Z 23009KT 9999 BKN016 27/23 Q1009 NOSIG

Colombo Radar: 126.000

VHHH App/Dep/Radar (Archives)
Hong Kong, Hong Kong

Feed Status: UP

Click on your favorite media player to listen:
Listen with WinAmp to VHHH App/Dep/Radar  Listen with iTunes to VHHH App/Dep/Radar  Click here to listen if using Real Player  Click here to listen if using Windows Media Player

Or simply listen in your browser:

Listen right in your browser(in browser, requires Flash)

VHHH 242100Z VRB03KT 9999 FEW035 29/25 Q1004 NOSIG

VHHH Flight Activity (Flightaware)

Listeners: 0 out of 869 total

Hong Kong Approach: 119.100
Hong Kong Departure Control: 122.000
Hong Kong Departure Control: 123.800
Hong Kong Director: 119.500
Hong Kong Zone Control: 120.600


Note: Feed manually alternates between listed frequencies.

VHHH Approach 119.1 #1 (Archives)
Hong Kong, Hong Kong

Feed Status: UP

Click on your favorite media player to listen:
Listen with WinAmp to VHHH Approach 119.1 #1  Listen with iTunes to VHHH Approach 119.1 #1  Click here to listen if using Real Player  Click here to listen if using Windows Media Player

Or simply listen in your browser:

Listen right in your browser(in browser, requires Flash)

VHHH 242100Z VRB03KT 9999 FEW035 29/25 Q1004 NOSIG

VHHH Flight Activity (Flightaware)

Listeners: 3 out of 869 total

Hong Kong Approach: 119.100

VHHH Approach 119.1 #2
Hong Kong, Hong Kong

Feed Status: DOWN
Offline since: 2016-08-18 09:03:03 UTC
VHHH 242100Z VRB03KT 9999 FEW035 29/25 Q1004 NOSIG

Hong Kong Approach: 119.100

VHHH ATIS
Hong Kong, Hong Kong

Feed Status: DOWN
Offline since: 2016-08-18 09:03:03 UTC
VHHH 242100Z VRB03KT 9999 FEW035 29/25 Q1004 NOSIG

Hong Kong Arrival ATIS: 128.200

VHHH Clearance Delivery
Hong Kong, Hong Kong

Feed Status: DOWN
Offline since: 2016-08-18 09:03:03 UTC
VHHH 242100Z VRB03KT 9999 FEW035 29/25 Q1004 NOSIG

Hong Kong Clearance Delivery: 129.900

VHHH Departure 123.8 (Archives)
Hong Kong, Hong Kong

Feed Status: UP

Click on your favorite media player to listen:
Listen with WinAmp to VHHH Departure 123.8  Listen with iTunes to VHHH Departure 123.8  Click here to listen if using Real Player  Click here to listen if using Windows Media Player

Or simply listen in your browser:

Listen right in your browser(in browser, requires Flash)

VHHH 242100Z VRB03KT 9999 FEW035 29/25 Q1004 NOSIG

VHHH Flight Activity (Flightaware)

Listeners: 1 out of 869 total

Hong Kong Departure: 123.800

VHHH Director
Hong Kong, Hong Kong

Feed Status: DOWN
Offline since: 2016-08-18 09:03:03 UTC
VHHH 242100Z VRB03KT 9999 FEW035 29/25 Q1004 NOSIG

Hong Kong Director: 119.500

VHHH Ground
Hong Kong, Hong Kong

Feed Status: DOWN
Offline since: 2016-08-18 09:02:04 UTC
VHHH 242100Z VRB03KT 9999 FEW035 29/25 Q1004 NOSIG

Hong Kong Ground (North): 121.600
Hong Kong Ground (South): 122.550

VHHH Ground (North)
Hong Kong, Hong Kong

Feed Status: DOWN
Offline since: 2016-08-18 09:03:03 UTC
VHHH 242100Z VRB03KT 9999 FEW035 29/25 Q1004 NOSIG

Hong Kong Ground (North): 121.600

VHHH Ground (South)
Hong Kong, Hong Kong

Feed Status: DOWN
Offline since: 2016-08-18 09:03:03 UTC
VHHH 242100Z VRB03KT 9999 FEW035 29/25 Q1004 NOSIG

Hong Kong Ground (South): 122.550

VHHH Tower
Hong Kong, Hong Kong

Feed Status: DOWN
Offline since: 2016-08-18 09:02:04 UTC
VHHH 242100Z VRB03KT 9999 FEW035 29/25 Q1004 NOSIG

Hong Kong Tower (North): 118.200
Hong Kong Tower (South): 118.400

VHHH Tower (North)
Hong Kong, Hong Kong

Feed Status: DOWN
Offline since: 2016-08-18 09:03:03 UTC
VHHH 242100Z VRB03KT 9999 FEW035 29/25 Q1004 NOSIG

Hong Kong Tower (North): 118.200

VHHH Tower (South)
Hong Kong, Hong Kong

Feed Status: DOWN
Offline since: 2016-08-18 09:03:03 UTC
VHHH 242100Z VRB03KT 9999 FEW035 29/25 Q1004 NOSIG

Hong Kong Tower (South): 118.400

VHHH Zone
Hong Kong, Hong Kong

Feed Status: DOWN
Offline since: 2016-08-18 09:03:03 UTC
VHHH 242100Z VRB03KT 9999 FEW035 29/25 Q1004 NOSIG

Hong Kong Zone: 120.600

VTBS App/Dep (Archives)
Bangkok, Thailand

Feed Status: UP

Click on your favorite media player to listen:
Listen with WinAmp to VTBS App/Dep  Listen with iTunes to VTBS App/Dep  Click here to listen if using Real Player  Click here to listen if using Windows Media Player

Or simply listen in your browser:

Listen right in your browser(in browser, requires Flash)

VTBS 242030Z 10005KT 060V150 9999 -RA FEW020 SCT030 25/23 Q1004 NOSIG

VTBS Flight Activity (Flightaware)

Listeners: 1 out of 869 total

Bangkok Approach: 122.350
Bangkok Approach: 124.350
Bangkok Approach: 125.200
Bangkok Approach: 119.400
Bangkok Approach: 125.800
Bangkok Approach/Departure: 119.100
Bangkok Approach/Departure: 121.700
Bangkok Arrival: 121.100

VTBS Gnd/Twr (Archives)
Bangkok, Thailand

Feed Status: UP

Click on your favorite media player to listen:
Listen with WinAmp to VTBS Gnd/Twr  Listen with iTunes to VTBS Gnd/Twr  Click here to listen if using Real Player  Click here to listen if using Windows Media Player

Or simply listen in your browser:

Listen right in your browser(in browser, requires Flash)

VTBS 242030Z 10005KT 060V150 9999 -RA FEW020 SCT030 25/23 Q1004 NOSIG

VTBS Flight Activity (Flightaware)

Listeners: 0 out of 869 total

Bangkok Ground: 121.650
Bangkok Ground: 121.750
Bangkok Ground: 121.950
Bangkok Tower: 119.000
Bangkok Tower: 118.200

VTSM Tower
Koh Samui, Thailand

Feed Status: DOWN
Offline since: 2016-06-05 14:59:03 UTC
METAR NOT AVAILABLE

Samui Tower: 118.900

VTSS Approach (Archives)
Songkhla, Thailand

Feed Status: UP

Click on your favorite media player to listen:
Listen with WinAmp to VTSS Approach  Listen with iTunes to VTSS Approach  Click here to listen if using Real Player  Click here to listen if using Windows Media Player

Or simply listen in your browser:

Listen right in your browser(in browser, requires Flash)

VTSS 242030Z 19005KT 9999 -RA FEW005 BKN100 25/25 Q1006 NOSIG

VTSS Flight Activity (Flightaware)

Listeners: 0 out of 869 total

Hat Yai Approach: 126.700

VVTS Gnd/Twr/App/Control (Archives)
Ho Chi Minh City, Vietnam

Feed Status: UP

Click on your favorite media player to listen:
Listen with WinAmp to VVTS Gnd/Twr/App/Control  Listen with iTunes to VVTS Gnd/Twr/App/Control  Click here to listen if using Real Player  Click here to listen if using Windows Media Player

Or simply listen in your browser:

Listen right in your browser(in browser, requires Flash)

VVTS 242030Z 28001KT 8000 SCT015 FEW017TCU 26/26 Q1004 NOSIG

VVTS Flight Activity (Flightaware)

Listeners: 2 out of 869 total

Ho Chi Minh Clearance Delivery: 121.800
Ho Chi Minh Control: 120.900
Ho Chi Minh Ground: 121.900
Ho Chi Minh Tower: 118.700
Tan Son Nhat Approach/Departure: 125.500

WARR Gnd/Twr/Radar (Archives)
Surabaya, Indonesia

Feed Status: UP

Click on your favorite media player to listen:
Listen with WinAmp to WARR Gnd/Twr/Radar  Listen with iTunes to WARR Gnd/Twr/Radar  Click here to listen if using Real Player  Click here to listen if using Windows Media Player

Or simply listen in your browser:

Listen right in your browser(in browser, requires Flash)

WARR 242030Z 26003KT 210V280 5000 HZ FEW020 24/21 Q1008 NOSIG


Listeners: 0 out of 869 total

Juanda Ground: 119.150
Juanda Tower: 118.300
Surabaya Director: 123.200
Surabaya East Control: 124.000
Surabaya West Control: 125.100

WBKK Gnd/Twr/App (Archives)
Kota Kinabalu, Malaysia

Feed Status: UP

Click on your favorite media player to listen:
Listen with WinAmp to WBKK Gnd/Twr/App  Listen with iTunes to WBKK Gnd/Twr/App  Click here to listen if using Real Player  Click here to listen if using Windows Media Player

Or simply listen in your browser:

Listen right in your browser(in browser, requires Flash)

WBKK 242030Z 11004KT 9999 FEW014 SCT140 BKN282 27/24 Q1007 NOSIG


Listeners: 0 out of 869 total

Kinabalu Director: 119.100
Kinabalu Ground: 121.600
Kinabalu Radar: 126.100
Kinabalu Radar: 132.450
Kinabalu Tower: 118.300

WIPP Gnd/Twr/App/Dep
Palembang, Indonesia

Feed Status: DOWN
Offline since: 2016-08-15 18:54:04 UTC
METAR NOT AVAILABLE

Palembang Approach/Departure/Center: 119.200
Palembang Ground/Tower: 118.100

WMKB Radar (Archives)
Penang, Malaysia

Feed Status: UP

Click on your favorite media player to listen:
Listen with WinAmp to WMKB Radar  Listen with iTunes to WMKB Radar  Click here to listen if using Real Player  Click here to listen if using Windows Media Player

Or simply listen in your browser:

Listen right in your browser(in browser, requires Flash)

WMKB 242000Z 29005KT 230V350 7000 -RA FEW008 SCT024 BKN260 25/23 Q1006 NOSIG


Listeners: 3 out of 869 total

Butterworth Radar: 125.800

Lumpur Control/Radar (North) (Archives)
Sepang, Malaysia

Feed Status: UP

Click on your favorite media player to listen:
Listen with WinAmp to Lumpur Control/Radar (North)  Listen with iTunes to Lumpur Control/Radar (North)  Click here to listen if using Real Player  Click here to listen if using Windows Media Player

Or simply listen in your browser:

Listen right in your browser(in browser, requires Flash)

WMKK 242030Z VRB02KT 8000 FEW030 SCT140 BKN280 26/23 Q1006 NOSIG


Listeners: 1 out of 869 total

Lumpur Control/Radar (North): 132.800

Lumpur Control/Radar (South) (Archives)
Sepang, Malaysia

Feed Status: UP

Click on your favorite media player to listen:
Listen with WinAmp to Lumpur Control/Radar (South)  Listen with iTunes to Lumpur Control/Radar (South)  Click here to listen if using Real Player  Click here to listen if using Windows Media Player

Or simply listen in your browser:

Listen right in your browser(in browser, requires Flash)

WMKK 242030Z VRB02KT 8000 FEW030 SCT140 BKN280 26/23 Q1006 NOSIG


Listeners: 1 out of 869 total

Lumpur Control/Radar (South): 123.750

WMKK Lumpur Control/Radar (East) (Archives)
Sepang, Malaysia

Feed Status: UP

Click on your favorite media player to listen:
Listen with WinAmp to WMKK Lumpur Control/Radar (East)  Listen with iTunes to WMKK Lumpur Control/Radar (East)  Click here to listen if using Real Player  Click here to listen if using Windows Media Player

Or simply listen in your browser:

Listen right in your browser(in browser, requires Flash)

WMKK 242030Z VRB02KT 8000 FEW030 SCT140 BKN280 26/23 Q1006 NOSIG


Listeners: 0 out of 869 total

Lumpur Contro/Radar (East): 134.250

WMKP Tower (Archives)
Penang, Malaysia

Feed Status: UP

Click on your favorite media player to listen:
Listen with WinAmp to WMKP Tower  Listen with iTunes to WMKP Tower  Click here to listen if using Real Player  Click here to listen if using Windows Media Player

Or simply listen in your browser:

Listen right in your browser(in browser, requires Flash)

WMKP 242030Z 28005KT 8000 SCT025 SCT140 BKN270 26/23 Q1006 NOSIG


Listeners: 0 out of 869 total

Penang Tower: 121.100

WMSA/WMKK Twr/App/Radar
Subang, Malaysia

Feed Status: DOWN
Offline since: 2016-06-22 19:22:04 UTC
WMSA 242000Z 00000KT 8000 FEW026 BKN280 27/25 Q1006

Air Force Ground: 125.200
Air Force Ground: 120.300
Lumpur Approach: 119.450
Lumpur Approach: 132.800
Lumpur Approach: 132.600
Lumpur Approach: 133.400
Lumpur Approach: 123.750
Lumpur Director: 125.100
Lumpur Director: 124.200
Lumpur Tower: 118.500
Lumpur Tower: 118.800
Misc-TBD:
Subang Tower: 118.200

ZBAA Tower (Archives)
Beijing, China

Feed Status: UP

Click on your favorite media player to listen:
Listen with WinAmp to ZBAA Tower  Listen with iTunes to ZBAA Tower  Click here to listen if using Real Player  Click here to listen if using Windows Media Player

Or simply listen in your browser:

Listen right in your browser(in browser, requires Flash)

ZBAA 242030Z 34007MPS CAVOK 28/16 Q1006 NOSIG


Listeners: 2 out of 869 total

Beijing Tower (Rwy 01/19): 118.600

ZLXY Twr/App (Archives)
Xian, China

Feed Status: UP

Click on your favorite media player to listen:
Listen with WinAmp to ZLXY Twr/App  Listen with iTunes to ZLXY Twr/App  Click here to listen if using Real Player  Click here to listen if using Windows Media Player

Or simply listen in your browser:

Listen right in your browser(in browser, requires Flash)

ZLXY 242000Z 28009G16MPS 240V340 1400 R05L/1200VP2000U R05R/P2000 +TSRA BR SCT012 BKN040CB 22/22 Q1008 BECMG TL2120 3000 NSW


Listeners: 0 out of 869 total

Xian Approach 01: 125.100
Xian Approach 02: 119.050
Xian Approach 03: 119.600
Xian Approach 04: 119.900
Xian Tower (North): 124.300
Xian Tower (South): 130.450

ZUGY Gnd/Twr (Archives)
Guiyang, China

Feed Status: UP

Click on your favorite media player to listen:
Listen with WinAmp to ZUGY Gnd/Twr  Listen with iTunes to ZUGY Gnd/Twr  Click here to listen if using Real Player  Click here to listen if using Windows Media Player

Or simply listen in your browser:

Listen right in your browser(in browser, requires Flash)

ZUGY 242000Z 00000MPS 7000 FEW026 21/21 Q1012 NOSIG


Listeners: 0 out of 869 total

Guiyang Tower: 118.300